Location: Betpouey
(42.8833°N, 0.0333°E)
Time: 05:58:41
(UTC+00:00)

Meteor 2-13 Rocket - Pass Details

Date: 30 June 2021
Orbit: 935 x 958 km, 82.5° (Epoch: 26 July)

Event Time Altitude Azimuth Distance (km) Brightness Sun altitude
Exits shadow 22:14:43 20° 107° (ESE) 2,041 5.8 -19.4°
Maximum altitude 22:16:27 23° 84° (E) 1,917 5.8 -19.5°
Drops below altitude 10° 22:21:06 10° 35° (NE) 2,694 7.2 -19.9°
Sets 22:24:06 0° 21° (NNE) 3,642 8.2 -20.1°
